Regional Weather Roundup
Issued by NWS

Home | Current Version | Previous Version | Text Only | Print | Product List | Glossary Off
Versions: 1 2 3 4 5 6 7 8 9 10 11 12 13 14 15 16 17 18 19 20 21 22 23 24 25 26 27 28 29 30 31 32 33 34 35 36 37 38 39 40 41 42 43 44 45 46 47 48 49 50

596
ASUS43 KFSD 232010
RWRSD

WEATHER ROUNDUP FOR SOUTH DAKOTA
NATIONAL WEATHER SERVICE SIOUX FALLS SD
300 PM CDT MON OCT 23 2017

NOTE: "FAIR" INDICATES FEW OR NO CLOUDS BELOW 12,000 FEET WITH NO
SIGNIFICANT WEATHER AND/OR OBSTRUCTIONS TO VISIBILITY.


SDZ001>005-009-010-012>017-232100-
NORTHWEST AND NORTH CENTRAL SOUTH DAKOTA

CITY           SKY/WX    TMP DP  RH WIND       PRES   REMARKS
BUFFALO          N/A     58  21  24 NW36G53   30.22R
FAITH            N/A     56  25  30 NW38G51   30.20F
MOBRIDGE       CLOUDY    59  32  36 NW31G39     N/A
$$

SDZ012>016-024>037-041>051-057-063-072>074-232100-
SOUTHWEST AND SOUTH CENTRAL SOUTH DAKOTA

CITY           SKY/WX    TMP DP  RH WIND       PRES   REMARKS
RAPID CTY ARPT PTSUNNY   58  21  24 N35G46    30.31R
PIERRE         PTSUNNY   58  32  37 NW23G37   30.15S
CUSTER         PTSUNNY   46  12  25 NW16G33   30.34R
ELLSWORTH AFB  MOSUNNY   54  19  25 NW35G44   30.30R
PHILIP         PTSUNNY   60  25  26 NW32G49   30.22F
SPEARFISH      FAIR      52  19  28 NW24G41   30.35S
WINNER         MOCLDY    59  30  33 NW35G43   30.16F
$$

SDZ004>011-016>023-039-040-232100-
NORTHEAST SOUTH DAKOTA

CITY           SKY/WX    TMP DP  RH WIND       PRES   REMARKS
ABERDEEN       PTSUNNY   56  33  42 NW24G41   30.04F
WATERTOWN      MOSUNNY   54  32  43 NW26G35   29.98S
BROOKINGS      PTSUNNY   52  29  41 NW28G37   29.98F
SISSETON         N/A     57  28  33 NW33G40   29.95S
$$

SDZ017-020-022-023-036>040-048>070-232100-
SOUTHEAST SOUTH DAKOTA

CITY           SKY/WX    TMP DP  RH WIND       PRES   REMARKS
SIOUX FALLS    MOSUNNY   54  35  48 N29G40    30.01R
HURON          MOSUNNY   57  32  38 NW26G36   30.06S
CHAMBERLAIN    CLOUDY    57  33  39 NW24G35   30.14S
MITCHELL       MOSUNNY   56  29  35 NW25G40   30.09R
YANKTON        PTSUNNY   55  35  47 NW23G36   30.06R
$$

ABBREVIATIONS USED IN REMARKS
   TC - TEMPERATURE IN CELSIUS
  WCI - WIND CHILL INDEX
   HX - HEAT INDEX
  VSB - VISIBILITY





USA.gov is the U.S. government's official web portal to all federal, state and local government web resources and services.